When you browse on this site, cookies collect data to enhance your experience and personalize the content and advertising you see.
Visit our Privacy Policy to learn more. By continuing to use the site, you agree to this use of cookies and data.
  • In Deutschland
  • Länderverzeichnis
  • Für 7 Tage
  • Wassertemperatur
  • Wetterkarte
  • Widgets
  • user-avatar
    Anmelden

    Stündliche Wetter Berlin

    Heute, 20 November, Mittwoch

    Zeit Temperatur Niederschläge Wind Luftdruck Luftfeuchtigkeit
    00:00 +6°C° 0.8 mm 1 m/S 760 mmHg 88%
    01:00 +6°C° 0 mm 1 m/S 760 mmHg 91%
    02:00 +6°C° 0.9 mm 1 m/S 760 mmHg 91%
    03:00 +5°C° 0.9 mm 2 m/S 760 mmHg 92%
    04:00 +5°C° 0.9 mm 2 m/S 760 mmHg 93%
    05:00 +5°C° 0.2 mm 2 m/S 760 mmHg 93%
    06:00 +6°C° 0.2 mm 1 m/S 760 mmHg 94%
    07:00 +6°C° 0 mm 1 m/S 760 mmHg 92%
    08:00 +6°C° 0.1 mm 1 m/S 760 mmHg 92%
    09:00 +6°C° 0.1 mm 1 m/S 760 mmHg 91%
    10:00 +6°C° 0.1 mm 1 m/S 760 mmHg 91%
    11:00 +6°C° 0.1 mm 1 m/S 760 mmHg 91%
    12:00 +6°C° 0.1 mm 0 m/S 760 mmHg 91%
    13:00 +6°C° 0.1 mm 0 m/S 760 mmHg 92%
    14:00 +6°C° 0 mm 0 m/S 759 mmHg 92%
    15:00 +6°C° 0 mm 0 m/S 759 mmHg 92%
    16:00 +6°C° 0 mm 0 m/S 759 mmHg 92%
    17:00 +5°C° 0 mm 0 m/S 759 mmHg 93%
    18:00 +5°C° 0 mm 0 m/S 759 mmHg 93%
    19:00 +6°C° 0 mm 1 m/S 759 mmHg 93%
    20:00 +6°C° 0 mm 1 m/S 759 mmHg 93%
    21:00 +6°C° 0 mm 1 m/S 759 mmHg 93%
    22:00 +6°C° 0 mm 1 m/S 759 mmHg 93%
    23:00 +6°C° 0 mm 1 m/S 759 mmHg 93%

    Morgen, 21 November, Donnerstag

    Zeit Temperatur Niederschläge Wind Luftdruck Luftfeuchtigkeit
    00:00 +6°C° 0 mm 1 m/S 758 mmHg 92%
    01:00 +7°C° 0 mm 1 m/S 758 mmHg 91%
    02:00 +6°C° 0 mm 2 m/S 758 mmHg 92%
    03:00 +6°C° 0 mm 2 m/S 757 mmHg 94%
    04:00 +6°C° 0 mm 2 m/S 757 mmHg 95%
    05:00 +6°C° 0 mm 2 m/S 756 mmHg 95%
    06:00 +6°C° 0 mm 2 m/S 756 mmHg 95%
    07:00 +7°C° 0 mm 2 m/S 756 mmHg 95%
    08:00 +7°C° 0 mm 2 m/S 756 mmHg 94%
    09:00 +7°C° 0 mm 3 m/S 756 mmHg 92%
    10:00 +8°C° 0 mm 3 m/S 755 mmHg 91%
    11:00 +8°C° 0 mm 3 m/S 755 mmHg 89%
    12:00 +9°C° 0 mm 3 m/S 755 mmHg 88%
    13:00 +9°C° 0 mm 2 m/S 755 mmHg 86%
    14:00 +9°C° 0 mm 2 m/S 754 mmHg 88%
    15:00 +9°C° 0 mm 2 m/S 754 mmHg 90%
    16:00 +8°C° 0 mm 2 m/S 754 mmHg 91%
    17:00 +8°C° 0 mm 2 m/S 754 mmHg 92%
    18:00 +8°C° 0 mm 2 m/S 754 mmHg 93%
    19:00 +8°C° 0 mm 2 m/S 754 mmHg 94%
    20:00 +8°C° 0 mm 2 m/S 753 mmHg 93%
    21:00 +7°C° 0 mm 2 m/S 753 mmHg 93%
    22:00 +7°C° 0 mm 2 m/S 753 mmHg 93%
    23:00 +7°C° 0 mm 2 m/S 753 mmHg 94%

    übermorgen, 22 November, Freitag

    Zeit Temperatur Niederschläge Wind Luftdruck Luftfeuchtigkeit
    00:00 +7°C° 0 mm 2 m/S 753 mmHg 94%
    01:00 +7°C° 0 mm 2 m/S 753 mmHg 95%
    02:00 +7°C° 0.1 mm 2 m/S 753 mmHg 95%
    03:00 +7°C° 0.1 mm 2 m/S 753 mmHg 95%
    04:00 +7°C° 0.1 mm 2 m/S 753 mmHg 95%
    05:00 +7°C° 0.1 mm 2 m/S 753 mmHg 95%
    06:00 +7°C° 0.1 mm 2 m/S 753 mmHg 96%
    07:00 +7°C° 0.1 mm 2 m/S 754 mmHg 96%
    08:00 +7°C° 0 mm 2 m/S 754 mmHg 93%
    09:00 +7°C° 0 mm 2 m/S 754 mmHg 91%
    10:00 +8°C° 0 mm 2 m/S 754 mmHg 88%
    11:00 +8°C° 0 mm 2 m/S 754 mmHg 85%
    12:00 +9°C° 0 mm 2 m/S 754 mmHg 81%
    13:00 +10°C° 0 mm 2 m/S 754 mmHg 78%
    14:00 +9°C° 0 mm 2 m/S 754 mmHg 82%
    15:00 +9°C° 0 mm 2 m/S 754 mmHg 86%
    16:00 +9°C° 0 mm 1 m/S 754 mmHg 89%
    17:00 +8°C° 0 mm 2 m/S 754 mmHg 90%
    18:00 +8°C° 0 mm 2 m/S 754 mmHg 91%
    19:00 +7°C° 0 mm 2 m/S 754 mmHg 92%
    20:00 +7°C° 0 mm 2 m/S 754 mmHg 92%
    21:00 +7°C° 0 mm 2 m/S 754 mmHg 92%
    22:00 +7°C° 0 mm 2 m/S 754 mmHg 92%
    23:00 +7°C° 0 mm 3 m/S 754 mmHg 93%

    23 November, Samstag

    Zeit Temperatur Niederschläge Wind Luftdruck Luftfeuchtigkeit
    00:00 +7°C° 0 mm 3 m/S 754 mmHg 93%
    01:00 +7°C° 0 mm 3 m/S 754 mmHg 94%
    02:00 +7°C° 0 mm 3 m/S 754 mmHg 93%
    03:00 +7°C° 0 mm 3 m/S 753 mmHg 92%
    04:00 +6°C° 0 mm 4 m/S 753 mmHg 91%
    05:00 +7°C° 0 mm 4 m/S 753 mmHg 89%
    06:00 +7°C° 0 mm 4 m/S 753 mmHg 87%
    07:00 +7°C° 0 mm 4 m/S 753 mmHg 85%
    08:00 +8°C° 0 mm 4 m/S 753 mmHg 82%
    09:00 +8°C° 0 mm 4 m/S 753 mmHg 80%
    10:00 +8°C° 0 mm 4 m/S 753 mmHg 78%
    11:00 +10°C° 0 mm 4 m/S 753 mmHg 75%
    12:00 +10°C° 0 mm 4 m/S 753 mmHg 73%
    13:00 +10°C° 0 mm 4 m/S 753 mmHg 71%
    14:00 +10°C° 0 mm 4 m/S 753 mmHg 72%
    15:00 +10°C° 0 mm 4 m/S 753 mmHg 73%
    16:00 +10°C° 0 mm 4 m/S 753 mmHg 74%
    17:00 +10°C° 0 mm 4 m/S 753 mmHg 74%
    18:00 +10°C° 0 mm 4 m/S 753 mmHg 75%
    19:00 +8°C° 0 mm 4 m/S 754 mmHg 75%
    20:00 +8°C° 0 mm 4 m/S 754 mmHg 75%
    21:00 +8°C° 0 mm 4 m/S 754 mmHg 76%
    22:00 +8°C° 0 mm 4 m/S 754 mmHg 76%
    23:00 +7°C° 0 mm 4 m/S 754 mmHg 77%

    24 November, Sonntag

    Zeit Temperatur Niederschläge Wind Luftdruck Luftfeuchtigkeit
    00:00 +7°C° 0 mm 4 m/S 755 mmHg 78%
    01:00 +7°C° 0 mm 4 m/S 755 mmHg 79%
    02:00 +6°C° 0 mm 4 m/S 755 mmHg 81%
    03:00 +5°C° 0 mm 4 m/S 755 mmHg 83%
    04:00 +5°C° 0 mm 4 m/S 755 mmHg 86%
    05:00 +4°C° 0 mm 4 m/S 755 mmHg 86%
    06:00 +4°C° 0 mm 3 m/S 755 mmHg 86%
    07:00 +4°C° 0 mm 3 m/S 755 mmHg 86%
    08:00 +4°C° 0 mm 3 m/S 756 mmHg 84%
    09:00 +5°C° 0 mm 3 m/S 756 mmHg 82%
    10:00 +5°C° 0 mm 3 m/S 756 mmHg 80%
    11:00 +7°C° 0 mm 3 m/S 756 mmHg 78%
    12:00 +8°C° 0 mm 3 m/S 756 mmHg 76%
    13:00 +8°C° 0 mm 3 m/S 756 mmHg 74%
    14:00 +7°C° 0 mm 3 m/S 756 mmHg 77%
    15:00 +7°C° 0 mm 2 m/S 757 mmHg 81%
    16:00 +6°C° 0 mm 2 m/S 757 mmHg 84%
    17:00 +5°C° 0 mm 2 m/S 757 mmHg 86%
    18:00 +5°C° 0 mm 2 m/S 757 mmHg 87%
    19:00 +4°C° 0 mm 2 m/S 757 mmHg 89%
    20:00 +4°C° 0 mm 2 m/S 758 mmHg 90%
    21:00 +4°C° 0 mm 2 m/S 758 mmHg 91%
    22:00 +3°C° 0 mm 2 m/S 758 mmHg 91%
    23:00 +3°C° 0 mm 2 m/S 758 mmHg 92%

    25 November, Montag

    Zeit Temperatur Niederschläge Wind Luftdruck Luftfeuchtigkeit
    00:00 +3°C° 0 mm 2 m/S 758 mmHg 93%
    01:00 +3°C° 0 mm 2 m/S 758 mmHg 93%
    02:00 +3°C° 0 mm 2 m/S 758 mmHg 93%
    03:00 +4°C° 0 mm 1 m/S 758 mmHg 93%
    04:00 +4°C° 0 mm 1 m/S 758 mmHg 93%
    05:00 +4°C° 0 mm 1 m/S 758 mmHg 93%
    06:00 +4°C° 0 mm 1 m/S 758 mmHg 92%
    07:00 +5°C° 0 mm 1 m/S 758 mmHg 92%
    08:00 +5°C° 0 mm 1 m/S 758 mmHg 90%
    09:00 +6°C° 0 mm 1 m/S 758 mmHg 88%
    10:00 +7°C° 0 mm 1 m/S 758 mmHg 86%
    11:00 +7°C° 0 mm 1 m/S 758 mmHg 85%
    12:00 +8°C° 0 mm 1 m/S 758 mmHg 84%
    13:00 +8°C° 0 mm 1 m/S 758 mmHg 83%
    14:00 +8°C° 0 mm 1 m/S 758 mmHg 85%
    15:00 +7°C° 0 mm 1 m/S 758 mmHg 87%
    16:00 +7°C° 0 mm 1 m/S 758 mmHg 89%
    17:00 +7°C° 0 mm 1 m/S 757 mmHg 90%
    18:00 +7°C° 0 mm 1 m/S 757 mmHg 90%
    19:00 +7°C° 0 mm 1 m/S 757 mmHg 91%
    20:00 +7°C° 0 mm 1 m/S 757 mmHg 91%
    21:00 +6°C° 0 mm 2 m/S 757 mmHg 91%
    22:00 +6°C° 0 mm 2 m/S 757 mmHg 91%
    23:00 +5°C° 0 mm 2 m/S 756 mmHg 92%
    Mehr zeigen